Wind_Speed
3 3 3 3 3 3 3 3 3 3 3 3 5 5 5 5 6 5 5 6 6 6 6 7 7 7 6 7 7 7 8 9 9 9 9 10 10 10 10 10 10 10 11
3 3 3 3 4 4 3 3 3 4 4 4 4 5 5 5 5 6 6 7 7 6 7 7 7 7 6 7 8 8 8 8 8 8 10 10 11 12 12 11 11 11 12
3 4 4 4 4 4 3 3 3 3 4 4 4 5 5 5 6 6 6 6 6 6 7 7 7 6 6 6 7 7 7 7 7 8 9 11 11 12 12 12 12 12 12
4 4 4 4 4 4 3 3 3 3 4 4 4 5 4 5 5 6 7 7 7 7 6 6 7 7 7 7 7 7 7 7 7 8 10 10 11 12 12 12 12 13 12
5 5 4 4 4 4 3 4 4 4 4 4 4 4 4 5 5 5 6 7 7 6 6 6 7 8 8 8 8 7 7 7 8 9 9 10 11 12 12 13 13 13 13
6 5 5 5 4 4 4 4 5 5 5 5 5 4 5 5 5 6 6 6 6 6 6 6 6 8 8 8 8 8 8 8 9 9 10 11 11 12 13 13 14 14 14
7 6 6 6 6 5 5 5 5 6 6 6 6 6 6 6 6 6 6 7 7 7 7 7 7 8 9 9 9 9 9 10 10 11 11 11 12 13 13 14 13 14 14
8 7 7 7 7 7 6 6 6 6 7 7 7 7 7 7 7 7 7 7 7 8 8 9 9 8 8 9 9 9 10 10 10 10 11 11 12 12 12 13 13 13 14
9 9 8 8 7 8 8 7 7 7 7 7 8 8 8 7 8 8 8 8 8 7 8 8 9 9 9 8 8 10 10 10 10 11 11 11 11 11 12 12 13 13 13
9 10 9 9 9 9 8 8 7 7 7 7 8 9 9 8 8 8 8 7 7 8 8 8 7 8 9 9 10 11 10 10 10 11 11 11 11 11 12 13 13 13 14
10 11 11 10 10 9 9 9 9 8 8 8 9 9 10 10 10 9 8 8 8 8 8 8 8 9 10 10 10 10 10 11 11 11 12 12 12 13 13 13 13 14 14
11 11 12 12 11 11 10 10 9 9 9 9 9 10 10 10 10 9 9 9 9 9 9 9 10 10 10 10 10 11 11 12 13 13 13 14 14 14 15 14 14 15 15
11 11 11 12 12 11 10 10 11 10 10 10 10 11 11 11 10 10 11 11 10 10 10 11 11 11 11 11 12 12 13 13 14 15 15 14 15 16 16 16 16 16 17
12 11 11 11 11 11 11 11 11 11 11 10 11 11 10 10 10 11 12 12 11 11 11 11 12 12 12 13 14 14 15 15 15 15 15 16 16 17 17 17 18 18 18
14 13 12 12 12 12 13 12 12 12 11 11 11 12 11 11 11 11 12 13 13 13 13 13 13 14 14 15 15 16 16 17 16 16 17 18 19 19 19 19 19 19 19
16 15 14 14 14 14 14 14 14 13 13 13 13 12 12 12 13 13 13 14 15 15 15 15 15 15 16 16 16 16 17 17 18 18 18 19 19 19 20 20 20 20 20
16 16 15 15 15 15 15 15 15 15 14 14 14 14 14 14 14 14 15 16 16 17 17 17 17 17 17 18 18 18 18 18 19 20 20 20 20 20 21 21 21 22 22
17 16 15 15 15 16 16 16 16 16 15 15 16 15 16 15 16 16 16 17 17 17 18 18 18 18 18 19 19 20 20 20 20 20 21 20 21 22 22 22 22 23 23
19 19 18 18 18 17 17 17 17 16 16 17 17 17 17 18 18 18 18 18 18 18 18 18 18 18 19 19 20 21 21 21 22 22 22 22 23 23 24 24 24 24 24
20 20 20 20 19 19 19 18 18 18 18 19 18 18 19 19 19 19 19 19 18 18 18 19 19 20 20 21 22 22 23 23 23 24 24 24 24 25 25 25 25 25 26
21 21 20 21 21 20 20 20 19 19 20 20 20 20 20 19 20 20 20 20 20 20 21 21 21 21 22 22 23 24 24 24 25 25 25 26 26 27 27 26 27 27 27
23 22 22 22 22 21 21 21 21 21 21 22 21 21 21 22 21 21 22 22 22 22 23 23 23 23 23 24 24 25 25 25 25 25 26 26 27 28 28 28 28 28 28
24 24 24 24 24 24 23 23 23 23 23 22 22 21 22 21 22 22 23 24 24 24 24 25 25 25 25 25 26 26 26 26 26 26 27 27 27 28 28 29 29 29 29
25 25 25 26 25 25 25 24 25 25 25 24 24 23 23 23 24 24 25 25 26 26 26 27 28 27 27 27 26 27 28 28 27 28 28 29 29 30 30 30 30 30 31
26 26 26 26 26 26 26 26 26 27 27 26 25 25 24 24 24 25 26 27 27 27 28 28 28 29 29 29 29 29 30 30 30 30 30 31 31 31 32 32 31 30 30
27 27 27 27 26 26 26 27 27 28 27 27 27 26 26 26 27 27 28 28 28 28 28 29 29 29 29 30 31 31 31 32 32 32 32 32 32 32 32 32 31 30 30
Wind_Direction
341 342 333 305 297 294 285 276 269 264 263 268 261 258 252 251 252 255 263 264 253 250 251 252 261 261 259 255 261 257 244 242 248 245 243 246 250 254 254 257 258 262 264
335 332 327 321 312 301 291 278 273 262 266 276 280 272 260 258 259 260 262 262 254 249 253 255 264 266 259 254 259 261 255 252 248 247 244 249 254 254 255 258 258 261 263
318 324 324 321 317 308 290 274 271 265 272 278 283 284 273 266 264 264 261 262 255 251 258 266 265 262 258 256 264 267 264 262 253 247 249 253 258 261 259 258 260 261 263
307 312 312 312 313 311 303 285 278 269 267 275 283 284 279 275 273 266 261 262 262 262 265 267 259 260 261 258 261 263 266 267 264 262 259 258 258 261 262 262 262 261 263
302 302 303 303 303 305 304 295 284 274 271 276 285 287 284 282 279 272 272 271 267 268 267 259 255 256 261 257 259 260 266 269 269 271 272 270 267 262 263 264 264 264 263
292 291 289 290 292 296 294 288 288 282 277 277 281 286 282 284 285 275 273 275 269 273 267 260 259 258 260 257 258 259 265 267 273 277 278 276 276 274 270 272 268 266 266
282 282 280 281 282 284 285 282 279 278 275 275 278 282 282 278 275 274 277 277 273 272 267 266 265 263 260 258 259 262 263 265 271 276 282 283 282 278 276 273 270 267 266
276 276 277 276 277 280 282 282 277 273 273 277 277 279 286 278 271 274 279 279 277 273 271 270 267 260 257 257 261 263 263 264 270 276 281 284 286 288 285 279 275 270 270
270 271 275 271 273 279 281 282 281 274 275 276 276 276 281 279 278 278 280 276 277 278 271 271 270 260 256 256 260 263 263 266 271 276 281 284 285 286 287 286 283 279 276
268 269 270 271 270 275 280 282 281 281 281 280 275 278 280 279 279 284 281 278 280 278 271 270 263 256 255 256 263 266 267 268 272 276 280 283 284 285 284 285 287 286 282
269 271 267 267 267 273 278 280 281 281 283 280 279 278 277 277 276 279 281 280 281 280 275 271 266 263 259 261 264 268 271 270 272 274 276 279 280 282 283 283 282 283 285
271 273 272 272 273 273 276 281 281 284 282 281 278 275 278 281 281 277 278 277 278 277 275 277 273 269 266 268 269 271 273 272 273 275 278 280 280 281 283 282 282 282 282
273 277 272 276 272 271 277 281 286 285 283 280 276 279 282 281 281 278 276 277 277 276 273 275 276 275 272 271 270 272 275 277 278 279 282 286 286 286 285 283 283 283 282
279 280 278 278 279 280 280 285 285 281 279 279 278 281 284 286 286 282 278 277 278 278 276 276 275 272 271 272 272 274 275 278 279 280 283 287 288 289 288 286 284 283 282
274 278 279 280 281 280 283 285 283 284 278 278 277 280 282 281 283 283 282 281 279 279 279 278 275 275 275 275 274 275 276 277 279 281 283 285 285 286 288 288 286 285 283
271 274 276 277 279 281 283 283 281 285 282 279 278 280 281 280 280 280 282 283 281 279 278 277 276 278 278 278 278 278 279 280 280 281 284 285 286 287 288 289 288 285 284
267 270 272 275 276 277 280 282 283 285 282 278 280 280 280 280 281 283 281 281 281 280 277 276 277 279 280 279 279 279 279 281 282 284 285 285 285 286 289 289 287 285 284
266 267 271 274 276 277 277 279 282 280 275 276 278 280 280 281 281 283 284 282 281 280 279 276 277 280 279 277 277 280 281 283 285 286 287 288 288 288 288 288 286 283 281
267 266 268 273 274 275 276 276 277 275 275 276 278 280 281 282 283 283 285 285 282 280 279 279 278 279 281 281 280 280 281 284 286 287 288 289 290 289 289 289 287 284 282
267 266 267 271 272 272 273 273 272 272 273 276 279 279 281 280 281 283 284 285 284 281 281 280 279 280 279 280 282 282 281 283 286 288 289 290 290 290 290 289 288 286 283
269 270 269 269 269 270 271 272 271 272 272 275 277 278 279 279 280 281 282 282 281 280 281 282 281 281 280 281 282 282 283 284 285 287 288 290 291 290 289 288 286 286 285
269 270 270 270 268 269 270 270 271 272 272 272 274 276 277 280 279 278 278 280 281 280 282 283 282 282 281 280 281 282 284 286 286 287 288 291 291 290 289 288 287 286 285
268 269 269 268 267 268 268 269 271 274 274 273 274 276 277 277 278 278 278 278 278 279 281 282 282 281 281 281 282 283 285 286 285 287 288 289 291 291 291 289 286 286 285
268 269 269 269 269 268 267 269 272 274 276 274 275 276 277 278 279 279 280 279 279 279 281 281 281 280 280 281 282 283 284 284 285 287 288 288 289 289 289 288 287 286 284
267 268 268 267 269 268 268 270 272 272 275 276 276 276 277 279 280 281 281 281 281 281 282 282 281 282 281 281 282 283 283 284 285 286 288 289 289 289 289 287 285 285 285
268 268 268 267 268 268 269 271 273 273 274 274 275 275 276 278 279 280 280 281 283 284 284 283 281 280 280 280 281 282 283 283 284 285 286 287 288 289 290 289 286 285 284
Height
5879 5878 5877 5876 5875 5875 5874 5874 5874 5873 5873 5872 5872 5872 5872 5872 5872 5872 5872 5871 5872 5872 5872 5872 5872 5872 5872 5872 5872 5873 5873 5873 5873 5873 5874 5874 5874 5875 5875 5875 5875 5875 5875
5878 5877 5877 5876 5875 5874 5873 5873 5873 5872 5872 5871 5871 5871 5871 5871 5871 5871 5871 5870 5870 5870 5870 5870 5871 5871 5871 5871 5871 5871 5871 5871 5872 5872 5872 5872 5872 5872 5873 5872 5873 5873 5873
5877 5876 5875 5875 5874 5873 5872 5871 5871 5871 5871 5870 5870 5869 5869 5869 5869 5870 5869 5869 5869 5869 5869 5869 5869 5869 5869 5870 5870 5870 5870 5870 5870 5870 5870 5870 5870 5870 5870 5870 5870 5871 5871
5876 5875 5874 5874 5873 5872 5871 5871 5870 5870 5870 5869 5869 5869 5868 5868 5868 5868 5868 5868 5867 5867 5867 5867 5867 5868 5868 5868 5868 5868 5868 5868 5868 5868 5868 5868 5868 5868 5868 5868 5868 5868 5868
5875 5874 5873 5873 5872 5871 5870 5870 5870 5869 5869 5869 5868 5868 5867 5867 5867 5867 5867 5866 5866 5866 5865 5865 5866 5866 5866 5866 5866 5867 5866 5866 5866 5866 5866 5865 5865 5865 5865 5865 5865 5865 5865
5873 5873 5872 5871 5871 5870 5869 5869 5868 5868 5868 5867 5867 5867 5866 5866 5866 5866 5865 5865 5864 5864 5864 5864 5864 5864 5864 5865 5865 5865 5865 5865 5864 5864 5864 5864 5863 5863 5863 5862 5862 5862 5862
5872 5871 5871 5870 5870 5869 5868 5868 5867 5867 5866 5866 5866 5866 5865 5865 5864 5864 5864 5863 5863 5863 5862 5862 5862 5863 5863 5863 5863 5863 5863 5863 5862 5862 5862 5861 5861 5861 5860 5860 5859 5858 5859
5870 5869 5869 5868 5868 5868 5867 5866 5866 5865 5865 5864 5864 5864 5864 5864 5863 5862 5862 5862 5861 5861 5861 5861 5861 5861 5861 5861 5861 5861 5861 5861 5860 5860 5860 5859 5859 5858 5857 5857 5856 5856 5856
5867 5867 5866 5866 5866 5866 5865 5865 5864 5864 5863 5863 5862 5863 5862 5862 5861 5861 5861 5860 5860 5859 5859 5859 5859 5859 5859 5859 5859 5858 5858 5858 5858 5858 5857 5857 5856 5855 5855 5854 5853 5853 5852
5865 5864 5864 5864 5864 5864 5864 5863 5863 5862 5862 5861 5861 5861 5860 5860 5860 5860 5859 5858 5858 5858 5857 5857 5857 5857 5857 5857 5857 5856 5856 5856 5856 5855 5855 5854 5853 5853 5852 5851 5851 5850 5849
5862 5862 5862 5862 5862 5862 5862 5861 5861 5860 5860 5859 5859 5859 5858 5858 5858 5858 5857 5857 5856 5856 5855 5855 5855 5854 5854 5854 5854 5854 5854 5853 5853 5852 5852 5851 5851 5850 5849 5848 5847 5847 5846
5860 5859 5859 5859 5859 5859 5859 5859 5859 5858 5858 5857 5857 5857 5856 5856 5856 5855 5855 5855 5854 5854 5853 5853 5852 5852 5852 5851 5851 5851 5851 5850 5850 5849 5849 5848 5847 5846 5846 5845 5844 5843 5842
5857 5857 5857 5856 5856 5856 5856 5856 5856 5856 5855 5855 5854 5854 5854 5853 5853 5853 5853 5852 5852 5851 5851 5850 5850 5849 5849 5849 5848 5848 5847 5847 5846 5846 5845 5844 5843 5843 5842 5841 5840 5839 5838
5854 5854 5853 5853 5853 5853 5853 5853 5853 5853 5852 5852 5852 5851 5851 5851 5850 5850 5850 5850 5849 5849 5848 5848 5847 5847 5846 5846 5845 5844 5844 5843 5843 5842 5841 5840 5839 5839 5837 5836 5835 5835 5834
5850 5850 5851 5850 5851 5850 5850 5850 5850 5850 5849 5849 5849 5848 5848 5848 5847 5847 5847 5846 5846 5845 5845 5844 5844 5843 5843 5842 5841 5841 5840 5839 5839 5838 5837 5836 5835 5834 5833 5832 5831 5830 5829
5847 5847 5847 5847 5847 5847 5847 5847 5846 5846 5845 5846 5845 5845 5845 5844 5844 5844 5843 5843 5842 5842 5841 5841 5840 5840 5839 5838 5837 5837 5836 5835 5834 5833 5833 5832 5831 5829 5828 5827 5825 5824 5823
5843 5844 5844 5844 5844 5844 5844 5843 5843 5842 5842 5842 5842 5842 5841 5841 5840 5840 5839 5839 5838 5838 5837 5836 5836 5835 5834 5834 5833 5832 5832 5831 5830 5829 5828 5826 5825 5824 5822 5821 5819 5818 5817
5839 5839 5840 5840 5840 5840 5840 5839 5838 5838 5838 5838 5838 5837 5837 5836 5836 5835 5835 5834 5834 5833 5833 5832 5831 5830 5830 5829 5828 5827 5826 5825 5825 5823 5822 5821 5819 5818 5816 5814 5813 5811 5810
5835 5835 5835 5836 5836 5835 5835 5834 5834 5833 5834 5833 5833 5833 5832 5832 5832 5831 5830 5829 5829 5828 5828 5827 5826 5825 5824 5823 5822 5822 5821 5820 5819 5817 5816 5815 5813 5811 5809 5808 5806 5805 5803
5830 5830 5831 5831 5831 5831 5830 5829 5829 5829 5829 5828 5828 5828 5827 5826 5826 5826 5825 5824 5824 5823 5822 5822 5821 5820 5819 5818 5816 5816 5815 5814 5812 5811 5810 5808 5807 5805 5803 5801 5799 5798 5796
5825 5825 5825 5825 5826 5826 5825 5825 5824 5824 5824 5823 5823 5822 5821 5821 5820 5820 5820 5819 5818 5818 5817 5816 5815 5814 5813 5812 5811 5809 5808 5807 5806 5804 5803 5801 5799 5797 5795 5793 5792 5790 5788
5819 5819 5819 5820 5820 5820 5820 5819 5819 5819 5818 5818 5817 5816 5816 5815 5815 5814 5814 5813 5812 5812 5811 5809 5808 5808 5807 5805 5804 5803 5802 5801 5799 5798 5796 5794 5792 5790 5787 5786 5784 5782 5780
5813 5813 5813 5813 5814 5814 5814 5813 5813 5813 5812 5811 5811 5810 5809 5809 5809 5808 5807 5807 5806 5805 5804 5803 5802 5801 5800 5799 5797 5796 5794 5793 5792 5790 5789 5787 5784 5782 5780 5778 5776 5774 5772
5806 5807 5807 5807 5807 5807 5807 5806 5806 5806 5806 5805 5805 5805 5804 5803 5802 5802 5801 5800 5799 5798 5797 5796 5795 5794 5792 5791 5790 5789 5787 5786 5785 5783 5781 5779 5777 5774 5772 5769 5767 5766 5764
5799 5800 5800 5800 5800 5800 5800 5800 5799 5799 5799 5799 5798 5798 5797 5797 5796 5795 5793 5792 5791 5790 5789 5788 5787 5785 5784 5783 5782 5781 5780 5778 5777 5775 5773 5770 5768 5766 5763 5761 5758 5756 5755
5792 5792 5792 5792 5792 5793 5792 5792 5792 5792 5791 5791 5791 5790 5790 5789 5789 5787 5786 5784 5783 5782 5781 5779 5778 5777 5776 5774 5773 5772 5771 5769 5768 5766 5764 5761 5759 5757 5755 5752 5750 5747 5745